Wetterdaten: Woche 24.11.25 - 30.11.25 (KW48)
Datum Zeit Temp. Aussen Temp. o. S. Temp +5cm Feuchte Auss Luftdruck Regen Sonnenschein Regendauer Solar Windböen Empfang
24.11.2025 00:00 3,3 °C 3,0 °C -1,0 °C 96 % 998,8 hPa 0,0 l/m² 0,00 h 0,00 h 0 W/m² 9,0 km/h (2 Bft) 104,87 %
24.11.2025 01:00 4,0 °C 3,5 °C -0,4 °C 96 % 998,4 hPa 0,0 l/m² 0,00 h 0,00 h 0 W/m² 7,3 km/h (2 Bft) 98,11 %
24.11.2025 02:00 4,6 °C 4,2 °C 0,3 °C 96 % 998,2 hPa 0,0 l/m² 0,00 h 0,00 h 0 W/m² 11,4 km/h (2 Bft) 94,99 %
24.11.2025 03:00 5,2 °C 4,6 °C 0,8 °C 96 % 998,0 hPa 0,0 l/m² 0,00 h 0,00 h 0 W/m² 12,5 km/h (3 Bft) 95,72 %
24.11.2025 04:00 5,2 °C 4,6 °C 1,0 °C 95 % 997,6 hPa 0,0 l/m² 0,00 h 0,00 h 0 W/m² 11,9 km/h (2 Bft) 98,83 %
24.11.2025 05:00 4,5 °C 3,4 °C 0,0 °C 94 % 997,1 hPa 0,0 l/m² 0,00 h 0,00 h 0 W/m² 8,0 km/h (2 Bft) 95,39 %
24.11.2025 06:00 3,2 °C 2,1 °C -1,0 °C 94 % 996,7 hPa 0,0 l/m² 0,00 h 0,00 h 0 W/m² 7,6 km/h (2 Bft) 98,36 %
24.11.2025 07:00 2,5 °C 1,7 °C -1,7 °C 95 % 996,3 hPa 0,0 l/m² 0,00 h 0,00 h 0 W/m² 5,4 km/h (1 Bft) 98,52 %
24.11.2025 08:00 2,5 °C 2,1 °C -1,2 °C 96 % 996,2 hPa 0,0 l/m² 0,00 h 0,00 h 16 W/m² 6,7 km/h (2 Bft) 94,69 %
24.11.2025 09:00 3,1 °C 3,1 °C -0,3 °C 96 % 996,0 hPa 0,0 l/m² 0,00 h 0,00 h 40 W/m² 5,9 km/h (2 Bft) 98,36 %
24.11.2025 10:00 4,2 °C 4,7 °C 0,9 °C 97 % 995,6 hPa 0,0 l/m² 0,00 h 0,00 h 77 W/m² 9,9 km/h (2 Bft) 96,70 %
24.11.2025 11:00 5,7 °C 6,6 °C 2,6 °C 97 % 995,3 hPa 0,0 l/m² 0,13 h 0,00 h 100 W/m² 8,4 km/h (2 Bft) 97,89 %
24.11.2025 12:00 6,9 °C 6,6 °C 2,8 °C 94 % 994,7 hPa 0,0 l/m² 0,00 h 0,07 h 47 W/m² 7,3 km/h (2 Bft) 98,23 %
24.11.2025 13:00 6,7 °C 5,9 °C 1,8 °C 93 % 994,3 hPa 2,2 l/m² 0,00 h 0,57 h 28 W/m² 3,7 km/h (1 Bft) 97,75 %
24.11.2025 14:00 6,5 °C 5,7 °C 1,8 °C 94 % 994,2 hPa 3,4 l/m² 0,00 h 0,70 h 19 W/m² 1,8 km/h (1 Bft) 94,44 %
24.11.2025 15:00 6,5 °C 6,1 °C 2,2 °C 96 % 994,4 hPa 0,2 l/m² 0,13 h 0,10 h 35 W/m² 1,8 km/h (1 Bft) 98,57 %
24.11.2025 16:00 6,5 °C 5,6 °C 1,9 °C 96 % 994,6 hPa 0,2 l/m² 0,00 h 0,13 h 10 W/m² 0,0 km/h (0 Bft) 97,03 %
24.11.2025 17:00 6,1 °C 5,0 °C 1,7 °C 97 % 994,9 hPa 0,2 l/m² 0,00 h 0,17 h 0 W/m² 0,5 km/h (0 Bft) 97,58 %
24.11.2025 18:00 5,7 °C 4,6 °C 1,4 °C 97 % 995,1 hPa 0,0 l/m² 0,00 h 0,00 h 0 W/m² 0,4 km/h (0 Bft) 95,44 %
24.11.2025 19:00 4,5 °C 2,7 °C -0,3 °C 96 % 995,5 hPa 0,0 l/m² 0,00 h 0,00 h 0 W/m² 0,0 km/h (0 Bft) 99,08 %
24.11.2025 20:00 4,0 °C 3,4 °C 0,4 °C 97 % 995,8 hPa 0,0 l/m² 0,00 h 0,00 h 0 W/m² 3,2 km/h (1 Bft) 95,49 %
24.11.2025 21:00 4,4 °C 3,9 °C 0,7 °C 97 % 996,0 hPa 0,7 l/m² 0,00 h 0,33 h 0 W/m² 5,1 km/h (1 Bft) 98,19 %
24.11.2025 22:00 4,7 °C 3,9 °C 1,1 °C 98 % 996,3 hPa 2,4 l/m² 0,00 h 0,83 h 0 W/m² 4,6 km/h (1 Bft) 99,71 %
24.11.2025 23:00 4,8 °C 4,2 °C 1,1 °C 98 % 996,2 hPa 1,7 l/m² 0,00 h 0,67 h 0 W/m² 7,5 km/h (2 Bft) 97,44 %
25.11.2025 00:00 5,1 °C 4,4 °C 1,7 °C 98 % 996,7 hPa 0,5 l/m² 0,00 h 0,08 h 0 W/m² 5,6 km/h (1 Bft) 98,39 %
25.11.2025 01:00 5,0 °C 4,4 °C 1,5 °C 98 % 996,9 hPa 0,0 l/m² 0,00 h 0,00 h 0 W/m² 5,6 km/h (1 Bft) 99,20 %
25.11.2025 02:00 5,1 °C 4,4 °C 1,7 °C 99 % 997,2 hPa 0,0 l/m² 0,00 h 0,00 h 0 W/m² 4,5 km/h (1 Bft) 97,57 %
25.11.2025 03:00 5,1 °C 4,4 °C 1,7 °C 99 % 997,7 hPa 0,0 l/m² 0,00 h 0,00 h 0 W/m² 3,5 km/h (1 Bft) 98,02 %
25.11.2025 04:00 5,1 °C 4,4 °C 1,7 °C 99 % 998,3 hPa 0,0 l/m² 0,00 h 0,00 h 0 W/m² 2,3 km/h (1 Bft) 97,63 %
25.11.2025 05:00 5,1 °C 4,4 °C 1,7 °C 99 % 999,0 hPa 0,0 l/m² 0,00 h 0,00 h 0 W/m² 0,0 km/h (0 Bft) 96,13 %
25.11.2025 06:00 4,8 °C 4,0 °C 1,3 °C 99 % 999,6 hPa 0,0 l/m² 0,00 h 0,00 h 0 W/m² 0,0 km/h (0 Bft) 97,05 %
25.11.2025 07:00 4,9 °C 4,3 °C 1,6 °C 99 % 1000,4 hPa 0,0 l/m² 0,00 h 0,00 h 0 W/m² 2,2 km/h (1 Bft) 97,25 %
25.11.2025 08:00 5,1 °C 4,4 °C 1,7 °C 99 % 1001,5 hPa 0,0 l/m² 0,00 h 0,03 h 4 W/m² 2,5 km/h (1 Bft) 97,32 %
25.11.2025 09:00 5,3 °C 4,8 °C 2,1 °C 99 % 1002,6 hPa 0,0 l/m² 0,00 h 0,00 h 12 W/m² 3,4 km/h (1 Bft) 92,52 %
25.11.2025 10:00 5,3 °C 4,7 °C 2,2 °C 99 % 1003,8 hPa 0,0 l/m² 0,00 h 0,07 h 14 W/m² 6,1 km/h (2 Bft) 98,40 %
25.11.2025 11:00 5,0 °C 4,6 °C 1,8 °C 99 % 1004,8 hPa 0,2 l/m² 0,00 h 0,00 h 28 W/m² 9,3 km/h (2 Bft) 94,15 %
25.11.2025 12:00 5,1 °C 5,1 °C 2,2 °C 99 % 1005,3 hPa 0,0 l/m² 0,00 h 0,00 h 52 W/m² 8,0 km/h (2 Bft) 97,50 %
25.11.2025 13:00 5,2 °C 5,4 °C 2,2 °C 99 % 1005,8 hPa 0,0 l/m² 0,00 h 0,00 h 45 W/m² 7,3 km/h (2 Bft) 99,18 %
25.11.2025 14:00 5,5 °C 5,8 °C 2,6 °C 99 % 1006,5 hPa 0,0 l/m² 0,00 h 0,00 h 59 W/m² 8,8 km/h (2 Bft) 94,52 %
25.11.2025 15:00 5,8 °C 5,8 °C 2,8 °C 99 % 1007,3 hPa 0,0 l/m² 0,00 h 0,00 h 35 W/m² 5,5 km/h (1 Bft) 99,12 %
25.11.2025 16:00 5,6 °C 5,1 °C 2,2 °C 98 % 1008,1 hPa 0,0 l/m² 0,00 h 0,00 h 9 W/m² 4,4 km/h (1 Bft) 98,04 %
25.11.2025 17:00 5,6 °C 5,0 °C 2,2 °C 98 % 1009,0 hPa 0,0 l/m² 0,00 h 0,00 h 0 W/m² 7,3 km/h (2 Bft) 96,45 %
25.11.2025 18:00 5,4 °C 4,6 °C 1,9 °C 98 % 1009,9 hPa 0,0 l/m² 0,00 h 0,00 h 0 W/m² 6,3 km/h (2 Bft) 97,78 %
25.11.2025 19:00 4,9 °C 4,3 °C 1,6 °C 97 % 1011,0 hPa 0,0 l/m² 0,00 h 0,00 h 0 W/m² 3,2 km/h (1 Bft) 97,57 %
25.11.2025 20:00 5,0 °C 4,4 °C 1,7 °C 97 % 1011,6 hPa 0,0 l/m² 0,00 h 0,00 h 0 W/m² 1,1 km/h (1 Bft) 95,96 %
25.11.2025 21:00 5,1 °C 4,4 °C 1,7 °C 98 % 1012,1 hPa 0,0 l/m² 0,00 h 0,00 h 0 W/m² 0,0 km/h (0 Bft) 97,43 %
25.11.2025 22:00 5,1 °C 4,4 °C 1,7 °C 98 % 1012,6 hPa 0,0 l/m² 0,00 h 0,07 h 0 W/m² 0,2 km/h (0 Bft) 97,75 %
25.11.2025 23:00 5,3 °C 4,4 °C 2,1 °C 98 % 1013,1 hPa 0,2 l/m² 0,00 h 0,03 h 0 W/m² 6,4 km/h (2 Bft) 95,79 %
26.11.2025 00:00 5,2 °C 4,4 °C 2,2 °C 98 % 1013,7 hPa 0,2 l/m² 0,00 h 0,03 h 0 W/m² 3,9 km/h (1 Bft) 96,56 %
26.11.2025 01:00 5,1 °C 4,3 °C 1,8 °C 98 % 1014,3 hPa 0,5 l/m² 0,00 h 0,00 h 0 W/m² 3,9 km/h (1 Bft) 98,53 %
26.11.2025 02:00 4,6 °C 3,9 °C 1,6 °C 98 % 1014,9 hPa 0,0 l/m² 0,00 h 0,00 h 0 W/m² 1,1 km/h (0 Bft) 97,85 %
26.11.2025 03:00 4,3 °C 3,9 °C 1,3 °C 98 % 1015,5 hPa 0,0 l/m² 0,00 h 0,00 h 0 W/m² 3,1 km/h (1 Bft) 95,64 %
26.11.2025 04:00 4,2 °C 3,9 °C 1,1 °C 98 % 1016,1 hPa 0,0 l/m² 0,00 h 0,00 h 0 W/m² 5,0 km/h (1 Bft) 97,60 %
26.11.2025 05:00 3,9 °C 3,4 °C 1,0 °C 99 % 1017,0 hPa 0,0 l/m² 0,00 h 0,00 h 0 W/m² 5,9 km/h (2 Bft) 94,78 %
26.11.2025 06:00 3,7 °C 3,3 °C 0,7 °C 99 % 1017,8 hPa 0,0 l/m² 0,00 h 0,00 h 0 W/m² 4,9 km/h (1 Bft) 96,08 %
26.11.2025 07:00 3,6 °C 3,3 °C 0,7 °C 98 % 1018,5 hPa 0,0 l/m² 0,00 h 0,00 h 0 W/m² 2,0 km/h (1 Bft) 97,40 %
26.11.2025 08:00 3,5 °C 3,3 °C 0,6 °C 98 % 1019,3 hPa 0,0 l/m² 0,00 h 0,00 h 8 W/m² 3,5 km/h (1 Bft) 98,12 %
26.11.2025 09:00 3,5 °C 3,6 °C 0,6 °C 98 % 1020,1 hPa 0,0 l/m² 0,00 h 0,00 h 19 W/m² 7,1 km/h (2 Bft) 95,62 %
26.11.2025 10:00 3,9 °C 4,2 °C 1,2 °C 96 % 1020,7 hPa 0,0 l/m² 0,00 h 0,00 h 50 W/m² 3,3 km/h (1 Bft) 96,61 %
26.11.2025 11:00 4,3 °C 4,4 °C 1,7 °C 94 % 1021,3 hPa 0,0 l/m² 0,00 h 0,00 h 48 W/m² 6,4 km/h (2 Bft) 99,58 %
26.11.2025 12:00 4,5 °C 4,5 °C 1,7 °C 93 % 1021,3 hPa 0,0 l/m² 0,00 h 0,00 h 73 W/m² 9,1 km/h (2 Bft) 96,04 %
26.11.2025 13:00 5,1 °C 6,3 °C 2,3 °C 92 % 1021,4 hPa 0,0 l/m² 0,23 h 0,00 h 115 W/m² 8,1 km/h (2 Bft) 98,15 %
26.11.2025 14:00 5,3 °C 5,4 °C 2,0 °C 89 % 1021,5 hPa 0,0 l/m² 0,00 h 0,00 h 66 W/m² 11,4 km/h (2 Bft) 98,10 %
26.11.2025 15:00 4,9 °C 4,5 °C 1,6 °C 90 % 1021,6 hPa 0,0 l/m² 0,00 h 0,00 h 27 W/m² 4,4 km/h (1 Bft) 97,10 %
26.11.2025 16:00 4,6 °C 4,0 °C 1,1 °C 91 % 1021,8 hPa 0,0 l/m² 0,00 h 0,00 h 10 W/m² 1,8 km/h (1 Bft) 96,96 %
26.11.2025 17:00 4,1 °C 3,3 °C 0,6 °C 92 % 1022,6 hPa 0,0 l/m² 0,00 h 0,00 h 0 W/m² 0,9 km/h (0 Bft) 98,38 %
26.11.2025 18:00 3,5 °C 2,2 °C -0,6 °C 92 % 1023,1 hPa 0,0 l/m² 0,00 h 0,00 h 0 W/m² 0,0 km/h (0 Bft) 98,02 %
26.11.2025 19:00 2,5 °C 0,7 °C -1,9 °C 93 % 1023,3 hPa 0,0 l/m² 0,00 h 0,00 h 0 W/m² 0,0 km/h (0 Bft) 96,53 %
26.11.2025 20:00 1,3 °C -0,6 °C -2,9 °C 93 % 1023,6 hPa 0,0 l/m² 0,00 h 0,00 h 0 W/m² 0,0 km/h (0 Bft) 97,17 %
26.11.2025 21:00 0,4 °C -0,8 °C -3,2 °C 93 % 1023,6 hPa 0,0 l/m² 0,00 h 0,00 h 0 W/m² 0,0 km/h (0 Bft) 96,30 %
26.11.2025 22:00 0,4 °C -0,8 °C -3,3 °C 94 % 1023,5 hPa 0,0 l/m² 0,00 h 0,00 h 0 W/m² 0,0 km/h (0 Bft) 94,70 %
26.11.2025 23:00 0,4 °C -0,7 °C -2,9 °C 95 % 1023,4 hPa 0,0 l/m² 0,00 h 0,00 h 0 W/m² 1,2 km/h (1 Bft) 95,76 %
27.11.2025 00:00 0,3 °C -0,7 °C -2,8 °C 96 % 1023,5 hPa 0,0 l/m² 0,00 h 0,00 h 0 W/m² 0,2 km/h (0 Bft) 97,53 %
27.11.2025 01:00 0,0 °C -1,0 °C -2,8 °C 96 % 1022,9 hPa 0,0 l/m² 0,00 h 0,00 h 0 W/m² 2,8 km/h (1 Bft) 98,49 %
27.11.2025 02:00 -0,2 °C -1,1 °C -3,1 °C 96 % 1022,4 hPa 0,0 l/m² 0,00 h 0,00 h 0 W/m² 4,2 km/h (1 Bft) 96,60 %
27.11.2025 03:00 -0,4 °C -1,1 °C -3,3 °C 97 % 1022,3 hPa 0,0 l/m² 0,00 h 0,00 h 0 W/m² 4,9 km/h (1 Bft) 97,23 %
27.11.2025 04:00 -0,4 °C -1,0 °C -3,3 °C 97 % 1022,1 hPa 0,0 l/m² 0,00 h 0,00 h 0 W/m² 8,1 km/h (2 Bft) 97,68 %
27.11.2025 05:00 -0,4 °C -0,8 °C -3,1 °C 97 % 1021,5 hPa 0,0 l/m² 0,00 h 0,00 h 0 W/m² 9,2 km/h (2 Bft) 97,53 %
27.11.2025 06:00 -0,2 °C -0,5 °C -2,8 °C 97 % 1021,3 hPa 0,0 l/m² 0,00 h 0,00 h 0 W/m² 9,3 km/h (2 Bft) 96,49 %
27.11.2025 07:00 0,3 °C 0,0 °C -2,4 °C 96 % 1021,2 hPa 0,0 l/m² 0,00 h 0,00 h 0 W/m² 9,7 km/h (2 Bft) 97,95 %
27.11.2025 08:00 0,6 °C 0,4 °C -2,1 °C 97 % 1020,8 hPa 0,0 l/m² 0,00 h 0,00 h 17 W/m² 12,2 km/h (2 Bft) 97,58 %
27.11.2025 09:00 1,3 °C 1,5 °C -1,3 °C 96 % 1020,7 hPa 0,0 l/m² 0,00 h 0,00 h 47 W/m² 12,3 km/h (3 Bft) 96,74 %
27.11.2025 10:00 2,5 °C 3,0 °C 0,1 °C 96 % 1020,7 hPa 0,0 l/m² 0,03 h 0,00 h 61 W/m² 11,1 km/h (2 Bft) 98,22 %
27.11.2025 11:00 3,6 °C 3,6 °C 0,6 °C 95 % 1020,3 hPa 0,2 l/m² 0,00 h 0,00 h 54 W/m² 13,3 km/h (3 Bft) 96,26 %
27.11.2025 12:00 4,0 °C 3,5 °C 0,6 °C 94 % 1019,7 hPa 0,0 l/m² 0,00 h 0,00 h 45 W/m² 13,8 km/h (3 Bft) 96,09 %
27.11.2025 13:00 4,2 °C 3,3 °C 0,6 °C 96 % 1019,5 hPa 0,5 l/m² 0,00 h 0,07 h 37 W/m² 14,0 km/h (3 Bft) 97,12 %
27.11.2025 14:00 4,4 °C 3,9 °C 1,0 °C 97 % 1019,2 hPa 1,0 l/m² 0,00 h 0,03 h 25 W/m² 11,6 km/h (2 Bft) 97,87 %
27.11.2025 15:00 4,6 °C 3,9 °C 1,1 °C 97 % 1019,0 hPa 0,0 l/m² 0,00 h 0,00 h 9 W/m² 11,7 km/h (2 Bft) 97,25 %
27.11.2025 16:00 4,9 °C 4,4 °C 1,7 °C 98 % 1019,0 hPa 0,0 l/m² 0,00 h 0,03 h 0 W/m² 11,0 km/h (2 Bft) 96,57 %
27.11.2025 17:00 5,1 °C 4,4 °C 1,7 °C 98 % 1019,1 hPa 0,0 l/m² 0,00 h 0,00 h 0 W/m² 10,5 km/h (2 Bft) 98,77 %
27.11.2025 18:00 5,1 °C 4,4 °C 1,7 °C 98 % 1019,4 hPa 0,0 l/m² 0,00 h 0,00 h 0 W/m² 11,3 km/h (2 Bft) 95,66 %
27.11.2025 19:00 4,9 °C 4,4 °C 1,7 °C 99 % 1019,5 hPa 0,0 l/m² 0,00 h 0,00 h 0 W/m² 10,3 km/h (2 Bft) 98,95 %
27.11.2025 20:00 4,9 °C 4,4 °C 1,7 °C 99 % 1019,7 hPa 0,0 l/m² 0,00 h 0,00 h 0 W/m² 7,9 km/h (2 Bft) 96,49 %
27.11.2025 21:00 5,0 °C 4,8 °C 1,8 °C 99 % 1019,6 hPa 0,2 l/m² 0,00 h 0,00 h 0 W/m² 11,2 km/h (2 Bft) 96,19 %
27.11.2025 22:00 5,2 °C 5,0 °C 2,2 °C 99 % 1019,5 hPa 0,0 l/m² 0,00 h 0,00 h 0 W/m² 9,9 km/h (2 Bft) 98,37 %
27.11.2025 23:00 5,5 °C 5,2 °C 2,2 °C 99 % 1019,3 hPa 0,0 l/m² 0,00 h 0,00 h 0 W/m² 9,2 km/h (2 Bft) 97,91 %
28.11.2025 00:00 5,9 °C 5,8 °C 2,7 °C 99 % 1019,1 hPa 0,0 l/m² 0,00 h 0,00 h 0 W/m² 10,9 km/h (2 Bft) 95,48 %
28.11.2025 01:00 6,4 °C 6,1 °C 2,8 °C 99 % 1018,7 hPa 0,0 l/m² 0,00 h 0,00 h 0 W/m² 12,2 km/h (2 Bft) 98,96 %
28.11.2025 02:00 6,3 °C 5,7 °C 2,8 °C 98 % 1018,4 hPa 0,0 l/m² 0,00 h 0,00 h 0 W/m² 11,0 km/h (2 Bft) 97,02 %
28.11.2025 03:00 6,0 °C 5,6 °C 2,8 °C 97 % 1018,0 hPa 0,0 l/m² 0,00 h 0,00 h 0 W/m² 13,9 km/h (3 Bft) 96,74 %
28.11.2025 04:00 5,8 °C 5,1 °C 2,4 °C 97 % 1017,7 hPa 0,2 l/m² 0,00 h 0,07 h 0 W/m² 14,6 km/h (3 Bft) 97,59 %
28.11.2025 05:00 5,7 °C 5,0 °C 2,2 °C 97 % 1017,6 hPa 0,7 l/m² 0,00 h 0,00 h 0 W/m² 15,4 km/h (3 Bft) 97,59 %
28.11.2025 06:00 5,7 °C 5,0 °C 2,2 °C 98 % 1017,3 hPa 1,0 l/m² 0,00 h 0,03 h 0 W/m² 15,8 km/h (3 Bft) 96,79 %
28.11.2025 07:00 5,7 °C 5,0 °C 2,7 °C 98 % 1017,2 hPa 1,7 l/m² 0,00 h 0,33 h 0 W/m² 14,1 km/h (3 Bft) 96,46 %
28.11.2025 08:00 5,8 °C 5,0 °C 2,8 °C 99 % 1017,1 hPa 0,7 l/m² 0,00 h 0,03 h 8 W/m² 14,2 km/h (3 Bft) 99,64 %
28.11.2025 09:00 5,9 °C 5,3 °C 2,8 °C 99 % 1017,0 hPa 0,5 l/m² 0,00 h 0,03 h 15 W/m² 14,0 km/h (3 Bft) 95,48 %
28.11.2025 10:00 6,3 °C 5,8 °C 3,3 °C 99 % 1017,0 hPa 0,5 l/m² 0,00 h 0,00 h 35 W/m² 14,1 km/h (3 Bft) 98,11 %
28.11.2025 11:00 6,7 °C 6,1 °C 3,8 °C 99 % 1016,6 hPa 0,0 l/m² 0,00 h 0,00 h 42 W/m² 12,7 km/h (3 Bft) 97,77 %
28.11.2025 12:00 7,2 °C 6,9 °C 4,3 °C 100 % 1015,8 hPa 0,2 l/m² 0,00 h 0,07 h 67 W/m² 10,8 km/h (2 Bft) 96,29 %
28.11.2025 13:00 7,7 °C 7,2 °C 4,9 °C 100 % 1015,1 hPa 0,0 l/m² 0,00 h 0,00 h 59 W/m² 12,2 km/h (2 Bft) 97,80 %
28.11.2025 14:00 7,8 °C 7,2 °C 5,0 °C 100 % 1014,5 hPa 0,2 l/m² 0,00 h 0,00 h 36 W/m² 10,0 km/h (2 Bft) 98,20 %
28.11.2025 15:00 7,8 °C 7,2 °C 5,0 °C 100 % 1014,0 hPa 0,5 l/m² 0,00 h 0,10 h 21 W/m² 11,9 km/h (2 Bft) 95,28 %
28.11.2025 16:00 7,8 °C 7,2 °C 5,0 °C 100 % 1013,8 hPa 0,2 l/m² 0,00 h 0,07 h 5 W/m² 14,6 km/h (3 Bft) 99,01 %
28.11.2025 17:00 7,8 °C 7,2 °C 5,0 °C 100 % 1013,9 hPa 0,5 l/m² 0,00 h 0,13 h 0 W/m² 8,5 km/h (2 Bft) 96,87 %
28.11.2025 18:00 7,8 °C 7,2 °C 5,0 °C 100 % 1014,2 hPa 1,2 l/m² 0,00 h 0,23 h 0 W/m² 6,9 km/h (2 Bft) 96,97 %
28.11.2025 19:00 8,2 °C 7,6 °C 5,3 °C 100 % 1014,5 hPa 0,0 l/m² 0,00 h 0,00 h 0 W/m² 7,7 km/h (2 Bft) 98,44 %
28.11.2025 20:00 8,6 °C 8,3 °C 5,6 °C 100 % 1014,5 hPa 0,0 l/m² 0,00 h 0,00 h 0 W/m² 9,7 km/h (2 Bft) 96,72 %
28.11.2025 21:00 8,6 °C 7,8 °C 5,6 °C 100 % 1014,3 hPa 0,0 l/m² 0,00 h 0,00 h 0 W/m² 10,1 km/h (2 Bft) 95,30 %
28.11.2025 22:00 8,3 °C 7,6 °C 5,4 °C 100 % 1013,9 hPa 0,0 l/m² 0,00 h 0,00 h 0 W/m² 11,1 km/h (2 Bft) 98,65 %
28.11.2025 23:00 7,6 °C 6,8 °C 4,5 °C 100 % 1013,7 hPa 0,0 l/m² 0,00 h 0,00 h 0 W/m² 6,0 km/h (2 Bft) 96,69 %
29.11.2025 00:00 7,3 °C 6,4 °C 4,2 °C 100 % 1013,7 hPa 0,0 l/m² 0,00 h 0,00 h 0 W/m² 6,2 km/h (2 Bft) 94,59 %
29.11.2025 01:00 7,1 °C 6,2 °C 3,8 °C 100 % 1013,5 hPa 0,0 l/m² 0,00 h 0,00 h 0 W/m² 2,8 km/h (1 Bft) 98,16 %
29.11.2025 02:00 6,3 °C 5,4 °C 3,1 °C 100 % 1013,4 hPa 0,0 l/m² 0,00 h 0,00 h 0 W/m² 1,7 km/h (1 Bft) 95,47 %
29.11.2025 03:00 6,4 °C 6,0 °C 3,7 °C 100 % 1013,4 hPa 0,0 l/m² 0,00 h 0,00 h 0 W/m² 1,3 km/h (1 Bft) 97,17 %
29.11.2025 04:00 6,6 °C 6,1 °C 3,9 °C 100 % 1013,0 hPa 0,0 l/m² 0,00 h 0,00 h 0 W/m² 6,8 km/h (2 Bft) 96,56 %
29.11.2025 05:00 6,3 °C 5,9 °C 3,7 °C 100 % 1012,7 hPa 0,0 l/m² 0,00 h 0,00 h 0 W/m² 7,1 km/h (2 Bft) 96,03 %
29.11.2025 06:00 6,5 °C 6,1 °C 3,9 °C 100 % 1012,5 hPa 0,0 l/m² 0,00 h 0,00 h 0 W/m² 7,3 km/h (2 Bft) 95,43 %
29.11.2025 07:00 6,6 °C 6,0 °C 3,8 °C 100 % 1012,3 hPa 0,0 l/m² 0,00 h 0,00 h 0 W/m² 6,6 km/h (2 Bft) 99,18 %
29.11.2025 08:00 5,8 °C 5,2 °C 3,0 °C 100 % 1012,1 hPa 0,0 l/m² 0,00 h 0,00 h 15 W/m² 8,8 km/h (2 Bft) 97,65 %
29.11.2025 09:00 5,4 °C 5,5 °C 2,8 °C 99 % 1011,9 hPa 0,0 l/m² 0,00 h 0,00 h 46 W/m² 9,0 km/h (2 Bft) 96,07 %
29.11.2025 10:00 6,1 °C 6,6 °C 3,6 °C 100 % 1011,6 hPa 0,0 l/m² 0,77 h 0,00 h 138 W/m² 13,8 km/h (3 Bft) 98,90 %
29.11.2025 11:00 7,2 °C 7,9 °C 4,7 °C 100 % 1010,8 hPa 0,0 l/m² 0,23 h 0,00 h 135 W/m² 16,3 km/h (3 Bft) 98,14 %
29.11.2025 12:00 7,9 °C 8,8 °C 5,5 °C 99 % 1009,5 hPa 0,0 l/m² 0,23 h 0,00 h 132 W/m² 16,3 km/h (3 Bft) 96,84 %
29.11.2025 13:00 9,1 °C 10,2 °C 6,8 °C 97 % 1008,9 hPa 0,0 l/m² 0,43 h 0,00 h 133 W/m² 14,5 km/h (3 Bft) 99,00 %
29.11.2025 14:00 10,0 °C 10,3 °C 7,2 °C 92 % 1008,3 hPa 0,0 l/m² 0,10 h 0,00 h 78 W/m² 13,1 km/h (3 Bft) 96,55 %
29.11.2025 15:00 10,3 °C 9,7 °C 7,0 °C 88 % 1007,7 hPa 0,2 l/m² 0,00 h 0,00 h 26 W/m² 12,3 km/h (3 Bft) 97,63 %
29.11.2025 16:00 9,8 °C 8,9 °C 6,3 °C 91 % 1007,2 hPa 0,0 l/m² 0,00 h 0,00 h 7 W/m² 18,8 km/h (3 Bft) 97,71 %
29.11.2025 17:00 9,7 °C 9,1 °C 6,1 °C 93 % 1006,8 hPa 0,0 l/m² 0,00 h 0,00 h 0 W/m² 18,7 km/h (3 Bft) 98,23 %
29.11.2025 18:00 9,6 °C 8,9 °C 6,1 °C 93 % 1006,5 hPa 0,0 l/m² 0,00 h 0,00 h 0 W/m² 18,4 km/h (3 Bft) 96,14 %
29.11.2025 19:00 9,4 °C 8,6 °C 5,7 °C 94 % 1006,5 hPa 0,0 l/m² 0,00 h 0,00 h 0 W/m² 16,7 km/h (3 Bft) 98,36 %
29.11.2025 20:00 9,3 °C 8,7 °C 5,6 °C 94 % 1006,1 hPa 0,0 l/m² 0,00 h 0,00 h 0 W/m² 16,2 km/h (3 Bft) 96,75 %
29.11.2025 21:00 9,5 °C 9,0 °C 6,1 °C 94 % 1005,9 hPa 0,0 l/m² 0,00 h 0,07 h 0 W/m² 15,2 km/h (3 Bft) 98,05 %
29.11.2025 22:00 9,7 °C 9,2 °C 5,8 °C 94 % 1005,7 hPa 0,0 l/m² 0,00 h 0,03 h 0 W/m² 13,2 km/h (3 Bft) 94,82 %
29.11.2025 23:00 9,8 °C 9,4 °C 5,9 °C 94 % 1005,5 hPa 0,0 l/m² 0,00 h 0,00 h 0 W/m² 11,9 km/h (2 Bft) 97,91 %
30.11.2025 00:00 10,2 °C 9,4 °C 6,1 °C 94 % 1005,6 hPa 0,0 l/m² 0,00 h 0,00 h 0 W/m² 14,3 km/h (3 Bft) 98,03 %
30.11.2025 01:00 8,9 °C 8,0 °C 4,6 °C 94 % 1006,5 hPa 0,5 l/m² 0,00 h 0,40 h 0 W/m² 10,3 km/h (2 Bft) 97,80 %
30.11.2025 02:00 8,3 °C 7,8 °C 4,4 °C 94 % 1007,1 hPa 0,0 l/m² 0,00 h 0,00 h 0 W/m² 12,6 km/h (3 Bft) 95,65 %
30.11.2025 03:00 8,1 °C 7,4 °C 4,4 °C 94 % 1007,6 hPa 0,0 l/m² 0,00 h 0,00 h 0 W/m² 11,1 km/h (2 Bft) 98,92 %
30.11.2025 04:00 7,8 °C 7,1 °C 3,9 °C 94 % 1007,9 hPa 0,0 l/m² 0,00 h 0,00 h 0 W/m² 6,8 km/h (2 Bft) 97,38 %
30.11.2025 05:00 7,5 °C 6,7 °C 3,9 °C 94 % 1008,3 hPa 0,0 l/m² 0,00 h 0,00 h 0 W/m² 7,1 km/h (2 Bft) 96,43 %
30.11.2025 06:00 7,3 °C 6,7 °C 3,8 °C 95 % 1008,7 hPa 0,0 l/m² 0,00 h 0,00 h 0 W/m² 9,2 km/h (2 Bft) 97,34 %
30.11.2025 07:00 7,2 °C 6,7 °C 3,3 °C 95 % 1009,1 hPa 0,0 l/m² 0,00 h 0,00 h 0 W/m² 7,2 km/h (2 Bft) 97,05 %
30.11.2025 08:00 7,1 °C 6,6 °C 3,3 °C 96 % 1009,7 hPa 0,0 l/m² 0,00 h 0,00 h 14 W/m² 8,0 km/h (2 Bft) 95,13 %
30.11.2025 09:00 7,3 °C 7,1 °C 4,0 °C 96 % 1010,5 hPa 0,0 l/m² 0,20 h 0,00 h 53 W/m² 10,9 km/h (2 Bft) 96,74 %
30.11.2025 10:00 7,6 °C 7,5 °C 4,4 °C 94 % 1011,1 hPa 0,0 l/m² 0,07 h 0,00 h 84 W/m² 12,4 km/h (3 Bft) 99,14 %
30.11.2025 11:00 7,6 °C 7,9 °C 4,4 °C 91 % 1011,4 hPa 0,0 l/m² 0,03 h 0,00 h 92 W/m² 10,8 km/h (2 Bft) 96,57 %
30.11.2025 12:00 7,9 °C 8,4 °C 4,8 °C 88 % 1011,6 hPa 0,0 l/m² 0,23 h 0,00 h 108 W/m² 10,9 km/h (2 Bft) 97,92 %
30.11.2025 13:00 8,0 °C 8,9 °C 4,4 °C 85 % 1012,0 hPa 0,0 l/m² 0,33 h 0,00 h 134 W/m² 13,0 km/h (3 Bft) 97,28 %
30.11.2025 14:00 7,8 °C 7,3 °C 4,0 °C 82 % 1012,5 hPa 0,0 l/m² 0,00 h 0,00 h 30 W/m² 12,7 km/h (3 Bft) 97,97 %
30.11.2025 15:00 7,1 °C 6,6 °C 3,2 °C 84 % 1013,2 hPa 0,0 l/m² 0,00 h 0,00 h 18 W/m² 11,5 km/h (2 Bft) 94,98 %
30.11.2025 16:00 6,6 °C 5,9 °C 2,6 °C 83 % 1014,3 hPa 0,0 l/m² 0,20 h 0,00 h 15 W/m² 12,1 km/h (2 Bft) 98,35 %
30.11.2025 17:00 5,9 °C 5,3 °C 2,1 °C 79 % 1015,0 hPa 0,0 l/m² 0,00 h 0,00 h 0 W/m² 5,3 km/h (1 Bft) 96,28 %
30.11.2025 18:00 5,8 °C 5,0 °C 1,7 °C 81 % 1015,4 hPa 0,0 l/m² 0,00 h 0,00 h 0 W/m² 6,4 km/h (2 Bft) 97,97 %
30.11.2025 19:00 5,6 °C 5,0 °C 1,7 °C 83 % 1016,0 hPa 0,0 l/m² 0,00 h 0,00 h 0 W/m² 9,4 km/h (2 Bft) 98,35 %
30.11.2025 20:00 5,6 °C 5,0 °C 1,7 °C 86 % 1016,5 hPa 0,0 l/m² 0,00 h 0,00 h 0 W/m² 10,0 km/h (2 Bft) 95,52 %
30.11.2025 21:00 5,4 °C 4,6 °C 1,3 °C 87 % 1017,0 hPa 0,0 l/m² 0,00 h 0,00 h 0 W/m² 9,0 km/h (2 Bft) 98,96 %
30.11.2025 22:00 5,3 °C 4,4 °C 0,8 °C 89 % 1017,4 hPa 0,0 l/m² 0,00 h 0,20 h 0 W/m² 9,4 km/h (2 Bft) 95,94 %
30.11.2025 23:00 5,3 °C 4,8 °C 1,0 °C 89 % 1017,7 hPa 0,2 l/m² 0,00 h 0,00 h 0 W/m² 16,9 km/h (3 Bft) 95,11 %
Min-Datum _ 27.11.25 26.11.25 26.11.25 30.11.25 24.11.25 - - - - 24.11.25 24.11.25
_ Min-Zeit 03:42 20:44 22:32 17:00 14:00 - - - - 02:34 00:02
Minimum _ -0,5 °C -1,1 °C -3,9 °C 79 % 994,0 hPa - - - - 0,0 km/h (0 Bft) 16,67 %
Max-Datum _ 30.11.25 29.11.25 29.11.25 28.11.25 26.11.25 24.11.25 26.11.25 24.11.25 30.11.25 29.11.25 24.11.25
_ Max-Zeit 00:44 13:48 13:48 12:04 20:14 14:26 13:44 21:40 13:48 18:38 00:07
Maximum _ 10,4 °C 11,7 °C 7,2 °C 100 % 1023,7 hPa 3,4 l/m² 0,07 h 0,08 h 296 W/m² 38,6 km/h
S-SO (5 Bft)
422,03 %
Durchschnitt _ 5,5 °C 5,0 °C 2,1 °C 96 % 1011,3 hPa #23,8 l/m² #3:22 h #5:49 h 47 W/m² 8,1 km/h (2 Bft) 97,21 %
© 2025 W. Hausmann